QPF
0.25 0.13 0.05 0.01 0.00 0.00 0.00 0.00 0.00 0.00 0.00 0.00 0.00 0.00 0.00 0.00 0.00 0.00 0.00 0.00 0.00 0.00 0.00 0.00 0.00 0.00 0.00 0.00 0.00 0.00 0.00 0.00 0.00 0.00 0.00 0.01 0.01 0.00 0.01 0.01 0.01 0.03 0.03 0.04
0.24 0.12 0.04 0.01 0.01 0.00 0.00 0.00 0.00 0.00 0.00 0.00 0.00 0.00 0.00 0.00 0.00 0.00 0.00 0.00 0.00 0.00 0.00 0.00 0.00 0.00 0.00 0.00 0.00 0.00 0.00 0.00 0.00 0.00 0.00 0.00 0.00 0.00 0.00 0.01 0.01 0.01 0.02 0.03
0.17 0.09 0.05 0.04 0.02 0.01 0.00 0.00 0.00 0.00 0.00 0.00 0.00 0.00 0.00 0.00 0.00 0.00 0.00 0.00 0.00 0.00 0.00 0.00 0.00 0.00 0.00 0.00 0.00 0.00 0.00 0.00 0.00 0.00 0.00 0.00 0.00 0.01 0.01 0.00 0.00 0.00 0.01 0.01
0.13 0.07 0.06 0.05 0.05 0.03 0.02 0.00 0.00 0.00 0.00 0.00 0.00 0.00 0.00 0.00 0.00 0.00 0.00 0.00 0.00 0.00 0.00 0.00 0.00 0.00 0.00 0.00 0.00 0.00 0.00 0.00 0.00 0.00 0.00 0.00 0.00 0.00 0.00 0.00 0.00 0.01 0.01 0.01
0.09 0.06 0.06 0.06 0.06 0.05 0.03 0.01 0.00 0.00 0.00 0.00 0.00 0.00 0.00 0.00 0.00 0.00 0.00 0.00 0.00 0.00 0.00 0.00 0.00 0.00 0.00 0.00 0.00 0.00 0.00 0.00 0.00 0.00 0.00 0.00 0.00 0.00 0.00 0.00 0.00 0.01 0.01 0.01
0.05 0.06 0.07 0.05 0.04 0.05 0.03 0.01 0.00 0.00 0.00 0.00 0.00 0.00 0.00 0.00 0.00 0.00 0.00 0.00 0.00 0.00 0.00 0.00 0.00 0.00 0.00 0.00 0.00 0.00 0.00 0.00 0.00 0.00 0.00 0.00 0.00 0.00 0.00 0.00 0.00 0.00 0.01 0.01
0.07 0.05 0.04 0.04 0.04 0.04 0.03 0.02 0.01 0.01 0.00 0.00 0.00 0.00 0.00 0.00 0.00 0.00 0.00 0.00 0.00 0.00 0.00 0.00 0.00 0.00 0.00 0.00 0.00 0.00 0.00 0.00 0.00 0.00 0.00 0.00 0.00 0.00 0.00 0.00 0.00 0.00 0.01 0.01
0.05 0.05 0.03 0.03 0.04 0.03 0.02 0.02 0.00 0.00 0.00 0.00 0.00 0.00 0.00 0.00 0.00 0.00 0.00 0.00 0.00 0.00 0.00 0.00 0.00 0.00 0.00 0.00 0.00 0.00 0.00 0.00 0.00 0.00 0.00 0.00 0.00 0.00 0.00 0.00 0.00 0.00 0.00 0.01
0.02 0.02 0.01 0.01 0.02 0.02 0.02 0.01 0.00 0.00 0.00 0.00 0.00 0.00 0.00 0.00 0.00 0.00 0.00 0.00 0.00 0.00 0.00 0.00 0.00 0.00 0.00 0.00 0.00 0.00 0.00 0.00 0.00 0.00 0.00 0.00 0.00 0.00 0.00 0.00 0.00 0.00 0.00 0.01
0.01 0.01 0.01 0.00 0.01 0.01 0.01 0.00 0.00 0.00 0.00 0.00 0.00 0.00 0.00 0.00 0.00 0.00 0.00 0.00 0.00 0.00 0.00 0.00 0.00 0.00 0.00 0.00 0.00 0.00 0.00 0.00 0.00 0.00 0.00 0.00 0.00 0.00 0.00 0.00 0.00 0.00 0.00 0.00
0.00 0.00 0.01 0.00 0.00 0.00 0.00 0.00 0.00 0.00 0.00 0.00 0.00 0.00 0.00 0.00 0.00 0.00 0.00 0.00 0.00 0.00 0.00 0.00 0.00 0.00 0.00 0.00 0.00 0.00 0.00 0.00 0.00 0.00 0.00 0.00 0.00 0.00 0.00 0.00 0.00 0.00 0.00 0.00
0.00 0.00 0.01 0.00 0.00 0.00 0.00 0.00 0.00 0.00 0.00 0.00 0.00 0.00 0.00 0.00 0.00 0.00 0.00 0.00 0.00 0.00 0.00 0.00 0.00 0.00 0.00 0.00 0.00 0.00 0.00 0.00 0.00 0.00 0.00 0.00 0.00 0.00 0.00 0.00 0.00 0.00 0.00 0.00
0.00 0.00 0.00 0.00 0.00 0.00 0.00 0.00 0.00 0.00 0.00 0.00 0.00 0.00 0.00 0.00 0.00 0.00 0.00 0.00 0.00 0.00 0.00 0.00 0.00 0.00 0.00 0.00 0.00 0.00 0.00 0.00 0.00 0.00 0.00 0.00 0.00 0.00 0.00 0.00 0.00 0.00 0.00 0.01
0.00 0.00 0.00 0.00 0.00 0.00 0.00 0.00 0.00 0.00 0.00 0.00 0.00 0.00 0.00 0.00 0.00 0.00 0.00 0.00 0.00 0.00 0.00 0.00 0.00 0.00 0.00 0.00 0.00 0.00 0.00 0.00 0.00 0.00 0.00 0.00 0.00 0.00 0.01 0.01 0.01 0.01 0.01 0.02
0.00 0.00 0.00 0.00 0.00 0.00 0.00 0.00 0.00 0.00 0.00 0.00 0.00 0.00 0.00 0.00 0.00 0.00 0.00 0.00 0.00 0.00 0.00 0.00 0.00 0.00 0.00 0.00 0.00 0.00 0.00 0.00 0.00 0.00 0.01 0.01 0.01 0.01 0.01 0.01 0.01 0.02 0.02 0.03
0.00 0.00 0.00 0.00 0.00 0.00 0.00 0.00 0.00 0.00 0.00 0.00 0.00 0.00 0.00 0.00 0.00 0.00 0.00 0.00 0.00 0.00 0.00 0.00 0.00 0.00 0.00 0.00 0.00 0.00 0.00 0.00 0.00 0.00 0.01 0.01 0.02 0.02 0.02 0.03 0.03 0.03 0.04 0.05
0.00 0.00 0.00 0.00 0.00 0.00 0.00 0.00 0.00 0.00 0.00 0.00 0.00 0.00 0.00 0.00 0.00 0.00 0.00 0.00 0.00 0.00 0.00 0.00 0.00 0.00 0.00 0.00 0.00 0.00 0.00 0.00 0.00 0.00 0.01 0.01 0.02 0.03 0.03 0.04 0.04 0.07 0.09 0.09
0.00 0.00 0.00 0.00 0.00 0.00 0.00 0.00 0.00 0.00 0.00 0.00 0.00 0.00 0.00 0.00 0.00 0.00 0.00 0.00 0.00 0.00 0.00 0.00 0.00 0.00 0.00 0.00 0.00 0.00 0.00 0.00 0.00 0.00 0.01 0.02 0.03 0.04 0.04 0.05 0.07 0.11 0.13 0.14
0.00 0.00 0.00 0.00 0.00 0.00 0.00 0.00 0.00 0.00 0.00 0.00 0.00 0.00 0.00 0.00 0.00 0.00 0.00 0.00 0.00 0.00 0.00 0.00 0.00 0.00 0.00 0.00 0.00 0.00 0.00 0.00 0.00 0.01 0.01 0.01 0.02 0.04 0.05 0.06 0.09 0.12 0.15 0.18
0.00 0.00 0.01 0.01 0.00 0.00 0.00 0.00 0.00 0.01 0.02 0.00 0.00 0.00 0.00 0.00 0.00 0.00 0.00 0.00 0.00 0.00 0.00 0.00 0.00 0.00 0.00 0.00 0.00 0.00 0.00 0.00 0.01 0.01 0.01 0.01 0.02 0.04 0.06 0.09 0.11 0.11 0.12 0.14
0.01 0.01 0.01 0.01 0.01 0.00 0.00 0.00 0.01 0.02 0.03 0.01 0.00 0.00 0.00 0.00 0.00 0.00 0.00 0.00 0.00 0.00 0.00 0.00 0.00 0.00 0.00 0.00 0.00 0.00 0.00 0.00 0.00 0.01 0.01 0.01 0.02 0.03 0.03 0.05 0.06 0.06 0.06 0.07
0.00 0.00 0.00 0.01 0.01 0.01 0.01 0.01 0.02 0.02 0.01 0.00 0.00 0.00 0.00 0.00 0.00 0.00 0.00 0.00 0.00 0.00 0.00 0.00 0.00 0.00 0.00 0.00 0.00 0.00 0.00 0.00 0.01 0.01 0.01 0.02 0.02 0.03 0.03 0.03 0.04 0.03 0.03 0.03
0.00 0.00 0.00 0.00 0.00 0.00 0.01 0.01 0.01 0.01 0.01 0.00 0.00 0.00 0.00 0.00 0.00 0.00 0.00 0.00 0.00 0.00 0.00 0.00 0.00 0.00 0.00 0.00 0.00 0.00 0.00 0.00 0.00 0.01 0.01 0.01 0.01 0.02 0.02 0.02 0.02 0.02 0.02 0.01
0.00 0.00 0.00 0.00 0.00 0.00 0.00 0.00 0.00 0.00 0.00 0.00 0.00 0.00 0.00 0.00 0.00 0.00 0.00 0.00 0.00 0.00 0.00 0.00 0.00 0.00 0.00 0.00 0.00 0.00 0.00 0.00 0.00 0.00 0.01 0.01 0.01 0.00 0.01 0.01 0.01 0.01 0.00 0.00
0.00 0.00 0.00 0.01 0.00 0.00 0.01 0.01 0.01 0.01 0.01 0.00 0.00 0.00 0.00 0.00 0.00 0.00 0.00 0.00 0.00 0.00 0.00 0.00 0.00 0.00 0.00 0.00 0.00 0.00 0.00 0.00 0.00 0.00 0.00 0.00 0.00 0.00 0.00 0.00 0.00 0.00 0.00 0.00
0.00 0.00 0.00 0.00 0.00 0.00 0.00 0.00 0.00 0.00 0.00 0.00 0.00 0.00 0.00 0.00 0.00 0.00 0.00 0.00 0.00 0.00 0.00 0.00 0.00 0.00 0.00 0.00 0.00 0.00 0.00 0.00 0.00 0.00 0.00 0.00 0.00 0.00 0.00 0.00 0.00 0.00 0.00 0.00
MSLP
1012.83 1013.15 1013.44 1013.70 1013.94 1014.19 1014.44 1014.71 1014.97 1015.21 1015.39 1015.49 1015.49 1015.39 1015.19 1014.93 1014.64 1014.34 1014.08 1013.85 1013.67 1013.52 1013.38 1013.25 1013.11 1012.96 1012.82 1012.69 1012.61 1012.59 1012.63 1012.73 1012.89 1013.09 1013.31 1013.53 1013.74 1013.94 1014.12 1014.28 1014.45 1014.62 1014.81 1015.02
1013.05 1013.36 1013.63 1013.85 1014.04 1014.24 1014.44 1014.67 1014.91 1015.13 1015.31 1015.42 1015.44 1015.37 1015.21 1014.99 1014.73 1014.47 1014.23 1014.01 1013.83 1013.67 1013.52 1013.36 1013.19 1013.00 1012.81 1012.64 1012.51 1012.43 1012.42 1012.47 1012.58 1012.73 1012.89 1013.07 1013.23 1013.38 1013.51 1013.65 1013.78 1013.93 1014.10 1014.30
1013.36 1013.69 1013.96 1014.15 1014.31 1014.45 1014.60 1014.77 1014.95 1015.14 1015.29 1015.39 1015.43 1015.38 1015.26 1015.09 1014.88 1014.66 1014.45 1014.26 1014.09 1013.93 1013.76 1013.57 1013.35 1013.12 1012.88 1012.66 1012.47 1012.34 1012.27 1012.26 1012.31 1012.40 1012.51 1012.63 1012.74 1012.83 1012.92 1013.00 1013.10 1013.21 1013.36 1013.55
1013.71 1014.08 1014.37 1014.56 1014.70 1014.79 1014.88 1014.98 1015.10 1015.22 1015.32 1015.40 1015.42 1015.39 1015.30 1015.17 1015.02 1014.86 1014.70 1014.54 1014.39 1014.23 1014.04 1013.83 1013.58 1013.30 1013.01 1012.73 1012.49 1012.29 1012.17 1012.10 1012.09 1012.12 1012.17 1012.23 1012.28 1012.31 1012.34 1012.38 1012.43 1012.51 1012.63 1012.80
1014.02 1014.46 1014.78 1014.99 1015.12 1015.18 1015.22 1015.25 1015.29 1015.33 1015.37 1015.40 1015.40 1015.36 1015.30 1015.20 1015.10 1014.99 1014.88 1014.77 1014.65 1014.51 1014.32 1014.09 1013.82 1013.50 1013.17 1012.85 1012.55 1012.30 1012.12 1012.00 1011.93 1011.89 1011.88 1011.87 1011.86 1011.83 1011.80 1011.79 1011.79 1011.83 1011.92 1012.06
1014.26 1014.75 1015.11 1015.35 1015.48 1015.53 1015.53 1015.51 1015.47 1015.44 1015.40 1015.36 1015.32 1015.26 1015.20 1015.13 1015.07 1015.01 1014.96 1014.91 1014.83 1014.72 1014.55 1014.33 1014.05 1013.72 1013.36 1013.00 1012.66 1012.36 1012.13 1011.95 1011.81 1011.71 1011.64 1011.56 1011.49 1011.40 1011.32 1011.25 1011.21 1011.21 1011.26 1011.37
1014.40 1014.92 1015.32 1015.59 1015.74 1015.79 1015.77 1015.70 1015.60 1015.50 1015.39 1015.28 1015.17 1015.08 1015.00 1014.95 1014.91 1014.90 1014.91 1014.91 1014.89 1014.83 1014.70 1014.51 1014.24 1013.92 1013.56 1013.18 1012.81 1012.48 1012.20 1011.96 1011.77 1011.61 1011.47 1011.33 1011.19 1011.05 1010.91 1010.79 1010.70 1010.66 1010.68 1010.76
1014.41 1014.94 1015.36 1015.66 1015.84 1015.91 1015.90 1015.81 1015.68 1015.52 1015.34 1015.16 1014.99 1014.84 1014.73 1014.66 1014.64 1014.67 1014.72 1014.78 1014.82 1014.83 1014.77 1014.62 1014.40 1014.11 1013.77 1013.39 1013.02 1012.66 1012.34 1012.06 1011.81 1011.59 1011.39 1011.19 1011.00 1010.80 1010.61 1010.45 1010.31 1010.23 1010.20 1010.25
1014.30 1014.82 1015.26 1015.59 1015.81 1015.92 1015.93 1015.86 1015.72 1015.52 1015.28 1015.04 1014.80 1014.59 1014.43 1014.34 1014.31 1014.35 1014.44 1014.55 1014.66 1014.74 1014.75 1014.68 1014.52 1014.29 1013.98 1013.63 1013.26 1012.90 1012.56 1012.24 1011.95 1011.68 1011.43 1011.18 1010.93 1010.69 1010.46 1010.25 1010.08 1009.95 1009.88 1009.88
1014.11 1014.61 1015.05 1015.41 1015.68 1015.85 1015.92 1015.88 1015.75 1015.53 1015.26 1014.96 1014.65 1014.38 1014.16 1014.02 1013.97 1014.01 1014.12 1014.28 1014.45 1014.60 1014.69 1014.70 1014.62 1014.45 1014.20 1013.90 1013.56 1013.20 1012.85 1012.51 1012.20 1011.89 1011.60 1011.32 1011.03 1010.76 1010.49 1010.25 1010.04 1009.87 1009.76 1009.71
1013.90 1014.36 1014.80 1015.19 1015.52 1015.76 1015.90 1015.91 1015.80 1015.59 1015.30 1014.95 1014.58 1014.24 1013.96 1013.77 1013.68 1013.71 1013.83 1014.02 1014.24 1014.45 1014.61 1014.70 1014.71 1014.61 1014.43 1014.18 1013.88 1013.56 1013.22 1012.88 1012.55 1012.24 1011.93 1011.62 1011.32 1011.03 1010.75 1010.48 1010.24 1010.05 1009.90 1009.81
1013.70 1014.13 1014.58 1015.01 1015.39 1015.70 1015.89 1015.96 1015.89 1015.69 1015.38 1014.99 1014.57 1014.17 1013.83 1013.59 1013.47 1013.47 1013.59 1013.80 1014.06 1014.33 1014.56 1014.73 1014.81 1014.79 1014.68 1014.49 1014.24 1013.95 1013.64 1013.32 1013.01 1012.70 1012.40 1012.10 1011.80 1011.51 1011.23 1010.97 1010.72 1010.50 1010.33 1010.21
1013.58 1013.99 1014.43 1014.89 1015.31 1015.67 1015.91 1016.02 1015.98 1015.78 1015.46 1015.04 1014.58 1014.13 1013.74 1013.46 1013.31 1013.31 1013.43 1013.66 1013.96 1014.27 1014.56 1014.79 1014.94 1014.99 1014.94 1014.81 1014.62 1014.38 1014.11 1013.82 1013.54 1013.26 1012.98 1012.71 1012.45 1012.19 1011.94 1011.69 1011.46 1011.25 1011.07 1010.93
1013.56 1013.95 1014.38 1014.84 1015.28 1015.65 1015.92 1016.04 1016.00 1015.79 1015.45 1015.01 1014.52 1014.04 1013.63 1013.34 1013.19 1013.19 1013.33 1013.59 1013.93 1014.29 1014.63 1014.91 1015.11 1015.22 1015.23 1015.16 1015.01 1014.82 1014.60 1014.36 1014.12 1013.89 1013.66 1013.44 1013.23 1013.02 1012.82 1012.62 1012.43 1012.25 1012.08 1011.95
1013.63 1014.00 1014.41 1014.84 1015.26 1015.61 1015.85 1015.94 1015.88 1015.65 1015.29 1014.83 1014.33 1013.85 1013.45 1013.18 1013.06 1013.10 1013.28 1013.59 1013.97 1014.38 1014.77 1015.10 1015.35 1015.50 1015.55 1015.52 1015.42 1015.27 1015.10 1014.91 1014.73 1014.55 1014.39 1014.24 1014.09 1013.96 1013.82 1013.69 1013.56 1013.43 1013.30 1013.19
1013.78 1014.11 1014.47 1014.84 1015.19 1015.47 1015.64 1015.68 1015.56 1015.30 1014.91 1014.45 1013.97 1013.52 1013.16 1012.95 1012.89 1013.01 1013.27 1013.64 1014.08 1014.55 1014.98 1015.36 1015.64 1015.82 1015.91 1015.91 1015.84 1015.74 1015.60 1015.47 1015.34 1015.22 1015.13 1015.05 1014.98 1014.92 1014.86 1014.81 1014.75 1014.68 1014.62 1014.55
1013.95 1014.22 1014.50 1014.78 1015.02 1015.20 1015.27 1015.22 1015.04 1014.73 1014.33 1013.88 1013.44 1013.05 1012.78 1012.67 1012.71 1012.93 1013.28 1013.74 1014.26 1014.79 1015.27 1015.68 1015.99 1016.19 1016.30 1016.32 1016.28 1016.20 1016.11 1016.01 1015.93 1015.88 1015.84 1015.83 1015.83 1015.85 1015.87 1015.89 1015.90 1015.91 1015.90 1015.89
1014.06 1014.25 1014.43 1014.59 1014.71 1014.77 1014.73 1014.59 1014.34 1014.00 1013.61 1013.20 1012.82 1012.53 1012.37 1012.38 1012.55 1012.89 1013.35 1013.91 1014.50 1015.08 1015.61 1016.05 1016.38 1016.59 1016.71 1016.75 1016.72 1016.67 1016.60 1016.54 1016.50 1016.49 1016.51 1016.55 1016.61 1016.69 1016.77 1016.85 1016.93 1016.99 1017.05 1017.09
1014.06 1014.16 1014.23 1014.27 1014.26 1014.20 1014.07 1013.85 1013.57 1013.23 1012.86 1012.51 1012.23 1012.06 1012.03 1012.17 1012.47 1012.92 1013.49 1014.13 1014.79 1015.42 1015.98 1016.44 1016.78 1017.00 1017.13 1017.17 1017.16 1017.12 1017.08 1017.05 1017.04 1017.06 1017.11 1017.19 1017.29 1017.40 1017.52 1017.64 1017.76 1017.87 1017.97 1018.05
1013.89 1013.90 1013.87 1013.81 1013.71 1013.56 1013.37 1013.12 1012.83 1012.52 1012.22 1011.96 1011.79 1011.74 1011.83 1012.09 1012.51 1013.06 1013.71 1014.41 1015.11 1015.77 1016.34 1016.80 1017.15 1017.38 1017.51 1017.56 1017.56 1017.54 1017.52 1017.52 1017.54 1017.58 1017.66 1017.75 1017.87 1017.99 1018.13 1018.27 1018.40 1018.53 1018.65 1018.75
1013.56 1013.49 1013.39 1013.26 1013.11 1012.93 1012.73 1012.50 1012.26 1012.02 1011.80 1011.65 1011.59 1011.65 1011.85 1012.20 1012.69 1013.30 1013.98 1014.70 1015.41 1016.07 1016.64 1017.10 1017.44 1017.67 1017.81 1017.88 1017.91 1017.91 1017.92 1017.94 1017.98 1018.05 1018.13 1018.24 1018.35 1018.48 1018.61 1018.73 1018.86 1018.99 1019.11 1019.22
1013.09 1012.97 1012.83 1012.69 1012.54 1012.39 1012.23 1012.07 1011.92 1011.78 1011.67 1011.62 1011.66 1011.81 1012.07 1012.47 1012.99 1013.60 1014.27 1014.97 1015.65 1016.28 1016.83 1017.27 1017.61 1017.85 1018.01 1018.10 1018.16 1018.21 1018.25 1018.30 1018.37 1018.45 1018.55 1018.66 1018.77 1018.88 1018.99 1019.09 1019.20 1019.31 1019.41 1019.52
1012.55 1012.42 1012.29 1012.18 1012.09 1012.01 1011.95 1011.89 1011.85 1011.82 1011.82 1011.86 1011.97 1012.16 1012.45 1012.85 1013.33 1013.90 1014.52 1015.15 1015.77 1016.35 1016.86 1017.28 1017.62 1017.88 1018.06 1018.20 1018.31 1018.40 1018.49 1018.58 1018.68 1018.79 1018.91 1019.02 1019.12 1019.22 1019.31 1019.39 1019.48 1019.56 1019.65 1019.75
1012.03 1011.93 1011.86 1011.82 1011.82 1011.86 1011.91 1011.97 1012.03 1012.11 1012.18 1012.29 1012.43 1012.62 1012.89 1013.22 1013.64 1014.12 1014.65 1015.20 1015.74 1016.26 1016.73 1017.13 1017.48 1017.76 1017.99 1018.17 1018.34 1018.49 1018.63 1018.77 1018.92 1019.06 1019.19 1019.32 1019.43 1019.52 1019.60 1019.67 1019.74 1019.81 1019.89 1019.97
1011.63 1011.60 1011.61 1011.68 1011.79 1011.93 1012.10 1012.26 1012.41 1012.55 1012.67 1012.79 1012.91 1013.07 1013.26 1013.52 1013.83 1014.20 1014.62 1015.08 1015.54 1016.01 1016.44 1016.84 1017.20 1017.51 1017.79 1018.04 1018.27 1018.48 1018.68 1018.88 1019.07 1019.24 1019.41 1019.55 1019.68 1019.79 1019.88 1019.95 1020.02 1020.09 1020.17 1020.25
1011.45 1011.50 1011.61 1011.78 1012.00 1012.24 1012.48 1012.71 1012.90 1013.05 1013.17 1013.25 1013.32 1013.40 1013.50 1013.65 1013.85 1014.12 1014.44 1014.81 1015.22 1015.64 1016.06 1016.47 1016.85 1017.21 1017.54 1017.84 1018.13 1018.40 1018.66 1018.90 1019.14 1019.35 1019.55 1019.73 1019.88 1020.02 1020.13 1020.22 1020.31 1020.40 1020.48 1020.57
Thickness
5536 5541 5551 5563 5572 5580 5584 5585 5588 5592 5593 5600 5607 5615 5625 5633 5636 5642 5647 5652 5656 5660 5665 5670 5674 5678 5681 5683 5685 5686 5687 5688 5688 5687 5685 5682 5680 5679 5676 5675 5673 5670 5668 5666
5532 5541 5556 5561 5563 5568 5574 5577 5580 5580 5585 5595 5601 5610 5621 5623 5627 5632 5637 5642 5646 5650 5656 5659 5664 5668 5671 5674 5676 5678 5679 5680 5681 5682 5682 5681 5680 5678 5676 5673 5669 5667 5664 5662
5531 5542 5550 5553 5556 5560 5566 5573 5576 5579 5579 5583 5594 5609 5610 5612 5618 5622 5627 5632 5636 5640 5646 5651 5654 5658 5661 5663 5665 5667 5669 5670 5672 5672 5673 5673 5673 5672 5670 5669 5668 5665 5662 5658
5527 5536 5544 5548 5552 5559 5559 5565 5569 5572 5580 5586 5588 5605 5605 5606 5611 5615 5620 5625 5629 5633 5637 5641 5645 5648 5651 5652 5654 5657 5659 5661 5662 5663 5664 5665 5665 5666 5667 5666 5665 5662 5657 5654
5524 5533 5539 5543 5549 5554 5552 5556 5559 5563 5571 5577 5581 5592 5606 5602 5605 5608 5613 5617 5621 5625 5628 5632 5635 5638 5641 5643 5644 5647 5649 5651 5653 5654 5654 5655 5657 5659 5660 5660 5658 5656 5653 5650
5520 5525 5532 5537 5539 5543 5542 5544 5546 5552 5561 5571 5581 5587 5601 5602 5603 5603 5606 5610 5613 5617 5621 5624 5627 5629 5632 5634 5635 5637 5640 5642 5643 5644 5645 5646 5647 5648 5649 5649 5649 5648 5646 5644
5513 5516 5520 5528 5527 5527 5538 5542 5546 5550 5557 5573 5565 5574 5595 5595 5596 5597 5599 5602 5606 5609 5613 5615 5618 5620 5622 5624 5625 5628 5630 5632 5634 5635 5636 5636 5637 5637 5637 5638 5638 5637 5636 5635
5518 5514 5517 5523 5529 5530 5536 5544 5553 5561 5568 5570 5554 5572 5588 5586 5586 5588 5590 5594 5597 5601 5604 5606 5608 5609 5611 5613 5615 5618 5619 5621 5623 5624 5625 5625 5625 5625 5626 5625 5625 5625 5625 5624
5525 5514 5515 5520 5525 5532 5532 5539 5543 5551 5551 5562 5572 5571 5577 5578 5579 5582 5586 5588 5592 5594 5596 5598 5599 5600 5602 5603 5605 5606 5608 5610 5611 5612 5612 5613 5613 5612 5612 5611 5610 5609 5608 5606
5527 5514 5514 5518 5523 5522 5530 5533 5536 5539 5550 5568 5574 5575 5584 5576 5578 5580 5583 5585 5588 5589 5590 5590 5591 5591 5592 5593 5594 5596 5597 5598 5599 5600 5600 5599 5599 5598 5596 5595 5593 5590 5587 5584
5526 5520 5512 5518 5522 5524 5523 5526 5533 5539 5543 5560 5573 5579 5582 5580 5579 5578 5580 5582 5583 5584 5583 5582 5582 5582 5582 5583 5584 5585 5586 5587 5588 5588 5588 5586 5584 5582 5579 5576 5573 5569 5565 5562
5523 5524 5514 5513 5514 5520 5527 5531 5532 5537 5537 5541 5559 5571 5572 5576 5574 5574 5577 5578 5579 5577 5575 5574 5573 5573 5574 5574 5574 5574 5575 5575 5575 5574 5573 5571 5568 5564 5561 5556 5551 5547 5543 5540
5523 5520 5512 5511 5512 5514 5521 5524 5528 5529 5532 5537 5554 5568 5564 5568 5569 5572 5574 5576 5575 5571 5568 5567 5566 5565 5564 5564 5564 5564 5563 5562 5562 5560 5558 5555 5551 5546 5541 5535 5530 5525 5521 5519
5523 5522 5524 5529 5532 5525 5520 5523 5525 5526 5531 5539 5549 5561 5564 5566 5569 5572 5573 5572 5570 5565 5560 5558 5557 5556 5555 5554 5553 5553 5552 5550 5549 5546 5543 5539 5533 5528 5522 5516 5510 5506 5502 5499
5523 5519 5518 5520 5520 5521 5524 5525 5524 5525 5534 5539 5550 5550 5561 5565 5566 5567 5568 5567 5563 5559 5553 5549 5547 5547 5546 5545 5544 5542 5540 5538 5536 5533 5529 5523 5518 5512 5506 5500 5494 5489 5484 5481
5519 5515 5513 5513 5515 5517 5520 5527 5528 5529 5534 5538 5541 5546 5560 5562 5561 5563 5565 5562 5558 5552 5545 5541 5539 5538 5537 5536 5534 5532 5530 5527 5525 5521 5516 5511 5505 5499 5493 5487 5481 5476 5471 5468
5515 5513 5512 5518 5513 5515 5526 5536 5533 5534 5537 5540 5541 5550 5558 5558 5560 5562 5560 5556 5551 5543 5538 5534 5532 5530 5528 5526 5524 5523 5521 5518 5515 5511 5506 5500 5494 5488 5482 5476 5471 5466 5461 5458
5514 5513 5511 5514 5512 5514 5540 5539 5539 5539 5541 5541 5546 5552 5554 5555 5556 5554 5551 5549 5544 5535 5531 5527 5524 5522 5520 5518 5516 5514 5512 5510 5506 5502 5496 5490 5485 5479 5473 5468 5463 5458 5453 5450
5512 5513 5511 5512 5518 5530 5538 5537 5536 5536 5542 5546 5544 5548 5551 5552 5551 5551 5539 5536 5533 5527 5523 5519 5516 5514 5512 5511 5508 5507 5504 5501 5497 5493 5488 5482 5477 5472 5466 5461 5456 5450 5446 5442
5503 5508 5510 5510 5513 5527 5538 5538 5537 5538 5543 5546 5545 5547 5548 5547 5554 5555 5534 5527 5522 5518 5514 5512 5509 5507 5505 5503 5501 5498 5495 5492 5488 5484 5479 5475 5471 5466 5460 5455 5450 5445 5441 5436
5496 5499 5503 5509 5514 5531 5536 5533 5533 5534 5541 5541 5543 5544 5544 5545 5548 5539 5527 5521 5516 5511 5508 5504 5502 5500 5497 5495 5493 5490 5487 5482 5479 5476 5472 5469 5464 5460 5455 5450 5445 5440 5437 5433
5507 5506 5507 5510 5512 5525 5530 5529 5532 5537 5536 5536 5538 5539 5539 5538 5530 5524 5520 5514 5509 5505 5502 5498 5496 5492 5490 5488 5486 5482 5478 5474 5472 5469 5466 5462 5458 5455 5450 5446 5441 5437 5435 5431
5511 5515 5517 5519 5524 5527 5527 5528 5529 5529 5530 5531 5533 5533 5531 5529 5525 5520 5515 5510 5506 5502 5498 5494 5491 5487 5484 5482 5481 5477 5472 5469 5466 5464 5460 5456 5453 5449 5446 5442 5438 5435 5432 5429
5507 5507 5510 5514 5521 5523 5523 5523 5522 5522 5524 5524 5524 5525 5525 5525 5523 5518 5512 5507 5503 5498 5494 5490 5487 5484 5481 5478 5475 5472 5468 5465 5463 5459 5455 5452 5449 5445 5441 5438 5434 5431 5427 5424
5510 5505 5508 5513 5518 5517 5518 5516 5515 5515 5515 5515 5516 5517 5518 5519 5517 5515 5510 5505 5500 5495 5491 5487 5485 5481 5478 5474 5471 5467 5464 5462 5459 5455 5451 5447 5443 5440 5436 5431 5427 5424 5420 5417
5504 5507 5510 5516 5516 5515 5516 5509 5506 5507 5508 5509 5510 5512 5512 5512 5513 5510 5507 5503 5498 5493 5488 5484 5481 5477 5473 5470 5466 5463 5460 5457 5454 5450 5446 5442 5437 5433 5430 5426 5421 5415 5413 5408